STARLINK-31656, 60286

Orbit data source: Space-Track

STARLINK-31656, 60286 is a payload satellite owned by SpaceX/Seattle (US) in LEO that was launched on Sun, 28 Jul 2024 UTC via an FALCON 9 launch vehicle from the Air Force Eastern Test Range (AFETR). Payload-class satellites include a variety of spacecraft equipped with specific instruments for various scientific and technological missions. These include communications satellites like Starlink; space stations such as the ISS; scientific satellites like the Hubble; Earth observation satellites from companies like Planet Labs, Umbra, and HawkEye 360; GPS; miniature CubeSats for education and research; and military/defense satellites.

Loading next visibility...
Identifier
60286, 2024-132J
Orbit
LEO
Country
Flag of USUS
Related business
Manufacturer
SpaceX/Seattle
Mission
Operational Commercial Communications
Bus & Motor
STARLINK V2M, Unknown motor
Mass
730 kg wet, ~700 kg dry
Launch date (UTC)
2024-07-28 (2 years ago)
Launch vehicle
FALCON 9
Launch site
Air Force Eastern Test Range (AFETR)
Object type
Payload
Rocket body
Debris
Shape & HBR
Box + 2 Pan, 17.7 m
Radar Cross Section
33.884 m², Large (>1 m²)

Expand to show TLE details & history
Last TLE update: 20 hours ago

TLE from 20 hours ago
0 STARLINK-31656
1 60286U 24132J   26036.68589807  .00000052  00000-0  13864-4 0  9995
2 60286  53.1592 200.8654 0001042 102.5835 257.5282 15.30193553 86667
Epoch: 2026-02-05T16:27Z
TLE epoch observation values (Epoch: 2026-02-05T16:27:41.593Z)
Latitude
-0.00004°
Longitude
178.1075°
Altitude
476.288 km
Speed
7.629 km/s
True Right ascension
13h 23m 27s
True Declination
0° 00' 00"
Sunlit
Object was in full shadow at epoch
Visualization orbit readout
Latitude
Unknown
Longitude
Unknown
Altitude
Unknown
Speed
Unknown
Apparent Right ascension
Unknown
Apparent Declination
Unknown
Sunlit
N/A
Visualization observer readout
Local Sidereal Time
14:38:59
Azimuth
Unknown
Elevation
Unknown
Doppler factor
Unknown
Orbital elements
Apogee altitude
476.205 km
Perigee altitude
474.777 km
Semi-major axis
6,853.628 km
Eccentricity
0.0001
Inclination
53.1592°
RAAN
200.8654°
Arg. of periapsis
102.5835°
True anomaly
257.51654°
Mean anomaly
257.5282°
Eccentric anomaly
257.52237°
Mean motion
3.82527 °/min
Orbital period
94.11 mins
BSTAR
0.000013864
Loading maneuver chart data...
Computing Atmospheric mass density...
Loading historical data...
Loading historical data...
Loading historical data...
Loading historical data...
Loading historical data...
Loading historical data...
Loading historical data...

Documentation

Showing up to 5 results
|